TimeMDT,TemperatureF,Dew PointF,Humidity,Sea Level PressureIn,VisibilityMPH,Wind Direction,Wind SpeedMPH,Gust SpeedMPH,PrecipitationIn,Events,Conditions,WindDirDegrees,DateUTC
12:53 AM,39.9,35.1,83,30.09,10.0,NW,9.2,-,N/A,,Overcast,320,2013-10-12 06:53:00
1:53 AM,39.9,35.1,83,30.11,10.0,WNW,6.9,-,N/A,,Mostly Cloudy,290,2013-10-12 07:53:00
2:53 AM,39.9,35.1,83,30.12,10.0,WNW,5.8,-,N/A,,Overcast,300,2013-10-12 08:53:00
3:53 AM,37.0,33.1,86,30.13,10.0,WNW,9.2,-,N/A,,Mostly Cloudy,300,2013-10-12 09:53:00
4:53 AM,37.0,33.1,86,30.15,10.0,West,8.1,-,N/A,,Mostly Cloudy,280,2013-10-12 10:53:00
5:53 AM,37.0,33.1,86,30.17,10.0,WNW,3.5,-,N/A,,Mostly Cloudy,300,2013-10-12 11:53:00
6:53 AM,37.9,34.0,86,30.19,10.0,West,6.9,-,N/A,,Overcast,280,2013-10-12 12:53:00
7:53 AM,39.9,35.1,83,30.21,10.0,WNW,5.8,-,N/A,,Overcast,290,2013-10-12 13:53:00
8:53 AM,44.1,35.1,71,30.22,10.0,Calm,Calm,-,N/A,,Overcast,0,2013-10-12 14:53:00
9:53 AM,46.0,35.1,66,30.24,10.0,Calm,Calm,-,N/A,,Overcast,0,2013-10-12 15:53:00
10:53 AM,48.9,32.0,52,30.23,10.0,SSE,4.6,-,N/A,,Mostly Cloudy,160,2013-10-12 16:53:00
11:53 AM,53.1,35.1,50,30.20,10.0,South,11.5,-,N/A,,Overcast,180,2013-10-12 17:53:00
12:53 PM,55.0,35.1,47,30.17,10.0,South,12.7,20.7,N/A,,Overcast,170,2013-10-12 18:53:00
1:53 PM,57.0,37.9,49,30.14,10.0,South,12.7,-,N/A,,Scattered Clouds,180,2013-10-12 19:53:00
2:53 PM,57.0,39.0,51,30.13,10.0,SSE,18.4,-,N/A,,Mostly Cloudy,160,2013-10-12 20:53:00
3:53 PM,55.0,39.9,57,30.14,10.0,South,17.3,23.0,N/A,,Scattered Clouds,170,2013-10-12 21:53:00
4:53 PM,52.0,44.1,74,30.15,10.0,SE,9.2,-,0.00,,Mostly Cloudy,140,2013-10-12 22:53:00
5:53 PM,48.9,45.0,86,30.18,7.0,SE,8.1,-,0.00,Rain,Light Rain,140,2013-10-12 23:53:00
6:53 PM,48.9,44.1,83,30.18,10.0,ENE,6.9,-,0.06,,Overcast,60,2013-10-13 00:53:00
7:53 PM,46.9,43.0,86,30.18,10.0,ESE,9.2,-,N/A,,Scattered Clouds,120,2013-10-13 01:53:00
8:53 PM,44.1,39.9,85,30.19,10.0,SSE,10.4,-,N/A,,Clear,150,2013-10-13 02:53:00
9:53 PM,43.0,39.0,86,30.20,10.0,SSE,8.1,-,N/A,,Clear,150,2013-10-13 03:53:00
10:53 PM,42.1,37.9,85,30.19,10.0,South,10.4,-,N/A,,Scattered Clouds,170,2013-10-13 04:53:00
11:53 PM,45.0,39.0,80,30.18,10.0,South,13.8,-,N/A,,Mostly Cloudy,170,2013-10-13 05:53:00